Flag for Peru Weather past 2 weeks in Iquitos, Loreto, Peru

Now
73 °F

Passing clouds.


Feels Like: 70 °F
Forecast: 72 / 78 °F
Wind: No wind

Location: Iquitos Airport

Current Time: Jul 4, 2015 at 7:19:26 PM

Latest Report: Jul 4, 2015 at 7:00 PM


Visibility: N/A

Pressure: 29.86 "Hg

Humidity: 94%

Dew point: 72 °F

Location of IquitosLocation

Historic Weather in Iquitos — Graph

°F

Iquitos temperature yesterday

Maximum temperature yesterday: 86 °F (at 3:00 PM)
Minimum temperature yesterday: 73 °F (at 5:00 AM)
Average temperature yesterday: 79 °F

Past Weeks' High & Low Weather Summary

 TemperatureHumidityPressure
High91 °F (Jun 27, 2:00 PM)100% (Jun 26, 11:00 PM)30.09 "Hg (Jun 26, 11:00 PM)
Low70 °F (Jun 20, 10:00 PM)52% (Jun 27, 2:00 PM)29.80 "Hg (Jul 2, 3:00 PM)
Average78 °F85%29.96 "Hg
* Reported Jun 19 6:00 PM — Jul 4 6:00 PM, Iquitos, Weather by CustomWeather, © 2015

Note: Actual official high and low records may vary slightly from our data, if they occured in-between our weather recording intervals... More about our weather records

Advertising

Iquitos weather history for previous 24 hours

 ConditionsComfort  
Time TempWeatherWind HumidityBarometerVisibility
6:00 PM
Sat, Jul 4
75 °FScattered showers. Passing clouds.3 mph94%29.83 "Hg5 mi
5:00 PM75 °FScattered showers. Partly sunny.7 mph94%29.83 "Hg5 mi
4:00 PM77 °FLight rain. Broken clouds.9 mph94%29.83 "Hg5 mi
3:00 PM84 °FScattered showers. Partly sunny.5 mph74%29.80 "HgN/A
2:00 PM84 °FScattered showers. Broken clouds.6 mph74%29.83 "HgN/A
1:00 PM82 °FScattered showers. Partly sunny.6 mph79%29.86 "HgN/A
12:00 PM82 °FPartly sunny.5 mph74%29.89 "HgN/A
11:00 AM81 °FPartly sunny.5 mph79%29.92 "HgN/A
10:00 AM79 °FPartly sunny.7 mph84%29.92 "HgN/A
9:00 AM77 °FPartly sunny.6 mph89%29.95 "HgN/A
8:00 AM75 °FBroken clouds.5 mph89%29.92 "HgN/A
7:00 AM75 °FBroken clouds.6 mph89%29.92 "HgN/A
6:00 AM75 °FBroken clouds.5 mph94%29.89 "HgN/A
5:00 AM73 °FPartly cloudy.5 mph94%29.89 "HgN/A
4:00 AM73 °FPassing clouds.5 mph94%29.89 "HgN/A
3:00 AM75 °FLight rain. Mostly cloudy.5 mph94%29.86 "Hg5 mi
2:00 AM73 °FScattered showers. Partly cloudy.3 mph94%29.86 "HgN/A
1:00 AM73 °FFog.No wind94%29.86 "Hg5 mi
12:00 AM73 °FFog.No wind94%29.86 "Hg5 mi
11:00 PM
Fri, Jul 3
75 °FPassing clouds.2 mph94%29.89 "HgN/A
10:00 PM75 °FPassing clouds.3 mph94%29.86 "HgN/A
9:00 PM77 °FPassing clouds.5 mph89%29.86 "HgN/A
8:00 PM77 °FPassing clouds.5 mph89%29.83 "HgN/A
7:00 PM79 °FPassing clouds.6 mph89%29.83 "HgN/A
Weather by CustomWeather, © 2015

See weather overviewHow to use our weather pages